SCP
0 -0 -0 -0 -0 -0 -0 -0 -0 0 0 0 -0 0 -0 0 0 -0 -0 -0 -0 0 -0 0 0 0 0 -0 0 0 0 0 0 0 0 0 0 -0 -0 -0 -0 -0 -0 -0 -0 -0 -0 -0 -0
0 0 -0 -0 -0 -0 0 -0 -0 0 0 0 0 0 0 0 0 -0 -0 0 -0 0 0 0 0 0 0 0 0 0 -0 -0 0 0 0 0 0 -0 -0 -0 -0 0 -0 -0 -0 -0 -0 -0 -0
-0 -0 0 0 0 0 0 -0 0 0 0 0 0 0 0 -0 0 0 -0 -0 -0 0 0 0 0 0 0 0 0 0 0 0 0 0 0 0 -0 -0 -0 0 0 -0 -0 -0 -0 -0 -0 -0 -0
0 0 0 0 0 0 0 0 0 0 0 0 -0 0 0 -0 -0 -0 -0 0 -0 0 0 0 0 0 0 0 0 0 0 0 -0 -0 -0 -0 -0 -0 -0 0 0 -0 -0 -0 -0 -0 -0 -0 -0
0 0 0 0 0 0 0 0 0 0 0 0 0 0 -0 -0 -0 -0 -0 -0 -0 -0 0 0 0 0 0 0 0 0 0 -0 -0 -0 -0 -0 0 0 0 0 0 -0 -0 -0 -0 -0 -0 -0 -0
0 0 0 0 0 0 0 0 0 0 0 0 0 -0 0 -0 -0 -0 -0 -0 -0 -0 -0 0 0 0 0 0 0 0 -0 -0 -0 -0 -0 0 0 0 0 0 0 -0 -0 -0 -0 -0 -0 -0 0
0 0 0 0 0 0 0 0 0 0 0 0 0 0 0 -0 0 -0 -0 0 -0 0 -0 -0 -0 0 0 0 0 0 -0 -0 -0 -0 -0 0 0 0 0 0 0 -0 -0 -0 -0 -0 -0 0 0
0 0 0 0 0 0 0 0 0 0 0 0 0 0 0 -0 -0 0 0 0 -0 0 0 -0 -0 -0 0 0 0 0 0 0 0 0 0 0 0 0 0 0 0 -0 -0 -0 -0 -0 0 0 0
0 0 0 0 0 0 0 0 0 0 0 0 0 0 0 -0 0 0 0 0 0 0 0 -0 0 0 0 0 0 0 0 0 0 0 0 0 0 0 0 0 0 -0 -0 -0 -0 -0 0 0 0
0 0 0 0 0 0 0 0 0 0 0 0 0 0 0 0 0 0 0 0 0 0 -0 -0 0 0 0 0 0 0 0 0 0 0 0 0 0 0 0 0 0 0 -0 -0 0 0 0 0 0
0 0 0 0 0 0 0 0 0 0 0 0 0 0 0 0 0 0 0 0 0 0 0 0 -0 0 0 0 0 0 0 0 0 0 0 0 0 0 0 0 0 0 0 0 0 0 0 0 0
0 0 0 0 0 0 0 0 0 0 0 0 0 0 0 0 0 0 0 0 0 0 0 0 0 0 0 0 0 0 0 0 0 0 0 0 0 0 0 0 0 0 0 0 0 0 0 0 0
0 0 0 0 0 0 0 0 0 0 0 0 0 0 0 0 0 0 0 0 0 0 0 0 0 0 0 0 0 0 0 0 0 0 0 0 0 0 0 0 0 0 0 0 0 0 0 0 0
0 0 0 0 0 0 0 0 0 0 0 0 0 0 0 0 0 0 0 0 0 0 0 0 0 0 0 0 0 0 0 0 0 0 0 0 0 0 0 0 0 0 0 0 0 0 0 0 0
0 0 0 0 0 0 0 0 0 0 0 0 0 0 0 0 0 0 0 0 0 0 0 0 0 0 0 0 0 0 0 0 0 0 0 0 0 0 0 0 0 0 0 0 0 0 0 0 0
0 0 0 0 0 0 0 0 0 0 0 0 0 0 0 0 0 0 0 0 0 0 0 0 0 0 0 0 0 0 0 0 0 0 0 0 0 0 0 0 0 0 0 0 0 0 0 0 0
0 0 0 0 0 0 0 0 0 0 0 0 0 0 0 0 0 0 0 0 0 0 0 0 0 0 0 0 0 0 0 0 0 0 0 0 0 0 0 0 0 0 0 0 0 0 0 0 0
0 0 0 0 0 0 0 0 0 0 0 0 0 0 0 0 0 0 0 0 0 0 0 0 0 0 0 0 0 0 0 0 0 0 0 0 0 0 0 0 0 0 0 0 0 0 0 0 0
0 0 0 0 0 0 0 0 0 0 0 0 0 0 0 0 0 0 0 0 0 0 0 0 0 0 0 0 0 0 0 0 0 0 0 0 0 0 0 0 0 0 0 0 0 0 0 0 0
0 0 0 0 0 0 0 0 0 0 0 0 0 0 0 0 0 0 0 0 0 0 0 0 0 0 0 0 0 0 0 0 0 0 0 0 0 0 0 0 0 0 0 0 0 0 0 0 0
0 0 0 0 0 0 0 0 0 0 0 0 0 0 0 0 0 0 0 0 0 0 0 0 0 0 0 0 0 0 0 0 0 0 0 0 0 0 0 0 0 0 0 0 0 0 0 0 0
0 0 0 0 0 0 0 0 0 0 0 0 0 0 0 0 0 0 0 0 0 0 0 0 0 0 0 0 0 0 0 0 0 0 0 0 0 0 0 0 0 0 0 0 0 0 0 0 0
0 0 0 0 0 0 0 0 -0 0 0 0 0 0 0 0 0 0 0 0 0 0 0 0 0 0 0 0 0 0 0 0 0 0 0 0 0 0 0 0 0 0 0 0 0 0 0 0 0
0 0 0 0 0 0 0 0 0 0 0 0 0 0 0 0 0 0 0 0 0 0 0 0 0 0 0 0 0 0 0 0 0 0 0 0 0 0 0 0 0 0 0 0 0 0 0 0 0
0 0 0 0 0 0 0 0 0 0 0 -0 -0 0 0 0 0 0 0 0 0 0 0 0 0 0 0 0 0 0 0 0 0 0 0 0 0 0 0 0 0 0 0 0 0 0 0 0 0
0 0 0 0 0 0 0 0 0 0 0 0 0 0 0 0 0 0 0 0 0 0 0 0 0 0 0 0 0 0 0 0 0 0 0 0 0 0 0 0 0 0 0 0 0 0 0 0 0
0 0 0 0 0 0 0 0 0 0 0 0 0 0 0 0 0 0 0 0 0 0 0 0 0 0 0 0 0 0 0 0 0 0 0 0 0 0 0 0 0 0 0 0 0 0 0 0 0
0 0 0 0 0 0 0 0 0 0 0 0 0 0 0 0 0 0 0 0 0 0 0 0 0 0 0 0 0 0 0 0 0 0 0 0 0 0 0 0 0 0 0 0 0 0 0 0 0
0 0 0 0 0 0 0 0 0 0 0 0 0 0 0 0 0 0 0 0 0 0 0 0 0 0 0 0 0 0 0 0 0 0 0 0 0 0 0 0 0 0 0 0 0 0 0 0 0
0 0 0 1 0 0 0 0 0 0 0 0 0 0 0 0 0 0 0 0 0 0 0 0 0 0 0 0 0 0 0 0 0 0 0 0 0 0 0 0 0 0 0 0 0 0 0 0 0
Wind_Speed_500mb
42 42 31 10 10 6 9 8 6 11 9 8 7 8 16 16 20 8 23 19 27 24 20 22 25 28 29 25 21 13 8 6 6 8 9 13 21 30 27 27 24 22 26 29 30 32 33 32 32
36 36 14 12 9 8 13 8 3 7 14 7 7 4 5 12 14 13 24 26 27 24 20 20 25 28 26 21 16 11 9 7 7 7 12 19 25 29 21 20 22 18 25 28 28 30 31 30 31
29 23 14 10 5 13 10 5 9 9 9 5 6 2 7 8 9 19 14 31 25 26 18 24 26 27 25 22 17 15 8 6 7 4 12 17 24 27 21 20 23 19 23 26 26 28 29 28 28
18 11 9 10 14 11 12 9 11 14 4 6 6 6 6 4 6 14 26 28 24 23 20 27 26 24 22 21 17 14 7 8 9 8 12 18 25 27 21 23 22 17 21 24 24 26 25 25 26
17 11 10 9 10 4 7 7 10 13 9 8 8 2 2 2 12 18 30 27 22 21 20 27 24 23 21 19 17 12 6 8 9 12 13 15 20 26 18 20 22 19 19 22 22 22 21 21 22
23 10 15 16 5 5 4 6 12 15 6 4 7 10 2 6 16 24 31 25 23 21 22 26 28 24 22 21 18 11 8 9 10 15 17 17 18 20 18 19 17 17 17 19 18 17 18 18 18
22 17 22 13 17 15 7 5 13 14 9 8 4 7 4 13 22 27 28 25 23 23 23 21 29 29 26 22 19 15 10 8 7 15 16 17 18 18 17 18 16 15 15 15 14 14 14 14 13
12 19 29 20 19 14 6 6 4 11 10 3 5 5 1 16 26 32 29 29 25 24 24 23 24 29 31 28 25 20 14 12 11 15 18 16 16 15 14 12 14 15 14 12 11 10 11 10 9
5 13 23 28 22 16 13 11 10 5 14 11 9 6 0 18 28 40 38 32 28 27 28 28 28 29 30 30 31 25 16 13 14 13 15 13 14 13 13 12 12 13 12 10 9 7 7 6 5
18 17 27 29 19 15 18 18 12 10 19 21 16 10 10 16 30 42 45 41 38 33 34 32 32 33 33 31 31 26 22 18 23 21 18 14 14 16 15 13 13 12 12 10 8 4 3 1 5
16 27 23 18 25 19 20 16 19 13 19 25 20 25 22 24 31 41 43 36 36 35 34 35 37 36 35 32 29 23 23 23 27 24 24 21 20 17 16 16 14 14 13 11 10 7 3 5 7
19 30 35 21 13 14 22 26 18 27 29 5 5 13 27 30 36 41 42 37 35 37 38 38 36 39 40 33 34 30 27 27 28 28 28 25 24 22 19 17 17 16 16 15 13 10 10 10 11
24 35 23 31 26 24 28 29 35 28 26 27 20 19 26 30 35 37 39 36 36 39 41 43 41 41 40 40 34 30 30 31 31 32 32 28 24 23 23 24 24 21 20 17 16 14 13 14 15
18 28 41 34 30 27 22 39 38 25 33 30 30 25 30 33 36 36 41 45 43 40 43 47 46 44 41 41 37 34 33 32 34 34 34 32 29 28 27 26 26 25 24 22 20 17 16 18 19
28 29 32 41 37 28 21 38 45 40 34 33 28 29 32 36 35 45 43 47 47 46 44 50 51 48 45 44 43 41 38 38 38 37 36 36 36 32 29 28 28 29 28 26 24 21 22 23 22
31 36 37 40 39 38 22 49 37 49 50 55 50 39 33 39 43 41 42 45 47 47 53 51 54 54 52 48 47 45 44 43 41 40 38 38 36 34 32 31 30 29 29 27 26 24 24 23 21
39 35 44 41 41 30 33 40 38 56 46 48 54 59 48 39 39 43 46 47 49 51 53 56 58 56 55 53 50 49 48 47 46 45 43 40 38 37 36 35 32 31 31 30 29 28 27 23 21
30 43 41 41 30 34 40 49 39 47 26 48 57 53 56 54 50 48 48 49 50 54 56 57 61 59 59 58 57 56 55 54 53 51 49 46 44 42 40 39 36 36 36 35 35 33 30 29 26
39 32 44 39 38 28 34 42 44 59 61 57 59 52 62 64 58 52 50 51 54 56 59 64 65 66 65 67 66 67 64 63 61 58 55 53 51 48 45 46 42 43 42 40 38 35 35 36 32
41 45 45 33 26 24 36 50 44 51 56 59 63 66 63 57 55 56 55 58 63 64 69 69 73 71 71 71 71 69 65 67 64 63 61 60 58 55 53 51 49 48 47 46 44 42 40 39 34
45 48 47 39 17 22 33 48 47 52 67 65 69 70 71 71 67 61 61 62 74 74 74 74 73 74 75 76 72 71 65 66 68 69 68 67 62 61 61 56 55 55 53 51 48 47 46 44 39
47 56 41 34 14 19 25 32 41 32 48 50 69 70 75 77 77 69 61 68 76 88 80 78 76 76 76 78 81 84 84 84 80 70 68 67 64 65 64 62 62 60 59 57 53 53 52 49 49
42 37 39 42 36 36 40 20 49 30 49 51 54 58 64 76 77 78 78 69 72 80 86 86 81 81 79 87 85 84 88 86 83 74 70 69 70 68 66 67 66 66 64 63 61 59 58 57 58
33 29 20 33 31 24 56 41 45 38 56 45 49 60 63 68 65 75 81 76 80 72 80 89 87 87 85 90 90 89 88 85 86 83 79 80 76 71 70 68 67 67 66 66 64 62 63 62 60
33 23 10 14 14 20 51 29 44 49 43 44 45 61 60 48 54 58 64 68 75 80 85 95 93 89 86 93 97 95 89 85 88 86 85 87 83 78 72 67 68 66 63 60 58 59 62 63 63
36 34 13 20 25 31 25 20 37 44 61 78 78 70 47 47 49 49 55 59 70 78 84 91 101 96 88 91 98 97 92 91 90 89 88 88 87 81 71 62 61 61 56 55 55 56 58 57 57
32 28 33 16 7 6 1 23 40 41 32 30 47 60 54 57 60 67 71 72 72 69 74 83 94 99 92 93 96 99 100 96 93 90 87 86 81 76 70 63 58 54 54 54 55 57 57 53 50
32 16 15 10 10 22 22 32 24 11 22 30 35 41 42 39 38 45 56 56 57 57 64 75 86 90 99 98 97 101 97 94 89 85 85 84 79 74 68 62 56 54 55 56 58 60 56 52 49
23 12 7 2 7 13 14 24 24 19 13 17 19 26 30 31 31 28 43 41 49 54 53 64 71 65 76 86 90 96 98 93 88 85 83 82 77 73 66 59 58 57 58 59 60 59 55 51 46
45 42 32 5 11 6 5 23 13 10 13 12 16 25 35 40 31 36 40 35 42 44 51 56 64 64 67 76 83 90 89 93 91 87 81 80 76 72 67 61 57 59 61 61 60 57 50 47 47
Wind_Direction_500mb
352 350 344 327 260 252 59 80 43 104 136 77 115 325 5 11 11 42 142 138 140 141 148 144 148 148 148 150 143 142 134 131 125 92 97 105 113 110 102 96 103 98 100 99 97 101 100 100 97
351 347 346 301 291 324 73 83 119 91 62 127 149 293 288 71 54 113 145 146 146 141 150 156 154 155 154 152 149 140 124 121 131 128 125 113 112 110 108 108 94 90 100 100 99 101 101 98 97
343 352 321 316 304 20 22 70 116 107 118 191 173 241 1 47 64 137 148 148 149 147 162 163 160 160 160 160 158 152 120 80 106 135 127 124 118 115 114 99 106 106 100 106 105 100 98 99 100
330 310 237 278 353 55 2 42 120 151 170 214 297 189 99 160 103 154 152 153 151 152 162 162 167 165 168 164 163 160 129 109 124 127 135 127 127 120 120 113 117 110 108 106 101 98 99 102 98
293 264 273 257 303 10 11 6 173 180 143 186 212 297 91 137 157 167 154 154 162 156 167 167 179 173 173 171 167 172 128 109 121 129 124 125 124 123 134 129 121 117 117 103 101 105 105 101 95
280 271 253 255 342 22 3 342 205 200 157 147 227 258 102 190 154 175 157 161 166 163 160 178 180 181 185 176 177 182 142 122 127 139 131 126 124 128 131 129 135 121 104 105 109 112 110 102 94
280 257 261 271 269 284 40 348 221 211 204 223 304 255 92 182 176 166 161 170 169 171 166 170 178 182 189 186 184 188 176 150 134 150 139 131 130 135 136 133 137 125 121 123 120 117 108 102 94
284 298 267 235 247 244 115 163 298 252 224 135 228 301 15 202 202 170 176 174 174 177 172 171 186 184 189 189 186 194 187 188 172 160 156 149 148 145 142 140 142 140 146 141 134 125 111 97 82
248 263 261 248 242 237 163 176 168 251 249 224 218 276 30 191 195 189 187 180 185 188 180 177 185 176 187 195 200 203 201 212 207 178 164 165 167 164 170 167 161 164 163 162 161 140 113 85 55
238 235 256 292 283 250 195 182 183 209 222 235 229 219 178 220 201 204 200 201 198 192 190 185 184 179 182 196 205 213 213 216 212 200 182 162 181 192 197 185 183 182 184 190 188 173 126 34 340
234 247 248 283 295 292 235 216 173 213 252 247 242 220 200 221 211 212 211 209 207 199 198 196 189 188 193 195 202 203 212 206 205 201 195 199 200 203 215 206 201 199 202 208 217 220 238 251 238
253 246 262 258 262 274 265 269 222 213 238 219 219 243 213 225 222 216 213 209 205 202 203 201 201 197 198 200 201 207 210 212 207 204 207 210 213 215 217 220 219 217 215 221 228 240 253 269 274
242 254 253 259 257 250 269 265 256 235 237 227 229 230 211 224 228 222 215 212 212 208 207 204 201 203 201 202 207 210 213 214 210 212 215 212 217 222 221 218 221 221 226 230 239 248 266 277 281
256 252 253 251 251 248 255 262 254 247 244 235 223 225 220 221 224 221 218 215 213 212 209 208 206 206 206 209 208 209 211 216 212 217 220 219 214 221 222 224 225 227 230 233 239 249 266 275 279
254 253 253 241 238 249 262 258 254 258 259 234 223 221 221 225 222 225 224 218 217 215 214 216 217 213 211 214 215 215 216 216 218 219 222 221 221 221 221 224 226 228 233 238 243 252 259 268 277
233 241 250 242 234 239 241 259 252 253 244 245 243 236 227 225 227 226 222 222 218 216 217 221 219 218 216 217 219 220 223 222 224 224 224 224 224 225 224 227 229 231 235 240 246 252 259 267 270
228 241 235 252 241 233 217 265 256 254 262 255 251 245 233 230 226 228 223 220 218 218 221 221 224 223 221 223 223 226 227 228 228 228 227 227 225 225 228 230 233 237 240 243 246 251 257 261 272
222 233 244 255 231 214 240 257 259 260 258 260 254 252 244 231 231 233 227 223 219 215 218 223 226 226 224 223 226 228 229 230 231 232 232 231 230 228 229 235 236 240 243 245 248 252 259 263 266
237 231 243 241 243 242 255 260 259 255 255 252 258 261 252 240 234 230 227 228 219 218 218 221 223 225 225 225 225 226 229 232 233 235 236 236 235 234 232 236 238 241 245 248 250 255 257 265 272
242 253 252 262 255 246 254 260 263 256 257 255 253 254 250 248 239 231 223 225 227 229 228 224 228 228 227 229 231 233 233 237 238 239 239 240 240 240 240 240 242 245 247 249 251 253 257 265 260
228 237 241 245 269 258 262 269 265 261 262 256 252 253 253 250 249 239 229 220 227 228 228 230 230 231 232 231 231 233 233 238 238 235 240 241 241 242 245 246 246 248 250 252 255 257 260 260 264
233 229 244 255 267 248 241 275 271 265 255 244 241 244 248 247 246 250 245 230 227 233 232 233 233 235 235 234 231 233 236 237 239 241 243 246 244 244 244 246 247 249 254 255 256 260 261 263 258
238 239 233 238 243 260 261 265 270 257 261 255 256 249 251 247 246 243 243 242 235 238 234 236 237 237 237 238 238 237 239 242 246 246 247 247 248 246 246 246 248 250 252 257 258 257 258 259 261
225 231 255 245 244 246 248 238 261 249 250 264 262 253 254 249 245 245 242 236 234 238 239 235 234 237 235 235 239 239 240 243 244 246 246 247 248 247 245 245 247 249 252 254 257 259 260 260 259
219 218 210 223 235 237 237 238 243 268 248 251 260 257 255 252 254 247 246 243 237 235 235 243 242 239 238 237 237 240 242 243 245 246 245 245 249 249 248 245 245 247 250 253 255 256 256 255 259
207 194 213 222 219 241 229 229 236 242 250 250 261 267 265 257 256 252 248 247 246 239 235 240 244 244 242 242 241 240 240 240 242 244 246 247 249 251 251 247 244 244 245 247 250 252 254 255 257
202 215 238 265 162 299 242 269 275 270 256 253 253 258 260 260 253 259 264 257 266 242 235 236 245 248 244 244 245 243 242 241 242 245 245 246 249 250 249 245 240 237 239 242 246 250 252 254 257
225 165 192 202 227 227 214 247 251 261 260 251 249 267 281 274 267 267 270 274 276 256 246 244 247 245 250 247 247 246 244 243 242 243 244 243 245 246 243 239 237 234 236 240 244 249 252 252 256
205 206 176 96 249 246 270 260 283 281 335 314 345 356 334 323 318 307 299 291 272 268 265 252 249 246 245 248 247 245 243 242 242 244 244 241 242 240 239 237 234 233 236 239 242 246 251 251 251
221 225 216 202 193 226 263 259 350 360 28 21 355 338 335 336 350 358 349 335 306 286 278 259 249 257 254 245 241 240 244 241 241 242 241 237 237 237 236 236 234 236 237 238 240 244 245 251 251
Wind_Speed_850mb
42 42 31 10 10 6 9 8 6 11 9 8 7 8 16 16 20 8 23 19 27 24 20 22 25 28 29 25 21 13 8 6 6 8 9 13 21 30 27 27 24 22 26 29 30 32 33 32 32
36 36 14 12 9 8 13 8 3 7 14 7 7 4 5 12 14 13 24 26 27 24 20 20 25 28 26 21 16 11 9 7 7 7 12 19 25 29 21 20 22 18 25 28 28 30 31 30 31
29 23 14 10 5 13 10 5 9 9 9 5 6 2 7 8 9 19 14 31 25 26 18 24 26 27 25 22 17 15 8 6 7 4 12 17 24 27 21 20 23 19 23 26 26 28 29 28 28
18 11 9 10 14 11 12 9 11 14 4 6 6 6 6 4 6 14 26 28 24 23 20 27 26 24 22 21 17 14 7 8 9 8 12 18 25 27 21 23 22 17 21 24 24 26 25 25 26
17 11 10 9 10 4 7 7 10 13 9 8 8 2 2 2 12 18 30 27 22 21 20 27 24 23 21 19 17 12 6 8 9 12 13 15 20 26 18 20 22 19 19 22 22 22 21 21 22
23 10 15 16 5 5 4 6 12 15 6 4 7 10 2 6 16 24 31 25 23 21 22 26 28 24 22 21 18 11 8 9 10 15 17 17 18 20 18 19 17 17 17 19 18 17 18 18 18
22 17 22 13 17 15 7 5 13 14 9 8 4 7 4 13 22 27 28 25 23 23 23 21 29 29 26 22 19 15 10 8 7 15 16 17 18 18 17 18 16 15 15 15 14 14 14 14 13
12 19 29 20 19 14 6 6 4 11 10 3 5 5 1 16 26 32 29 29 25 24 24 23 24 29 31 28 25 20 14 12 11 15 18 16 16 15 14 12 14 15 14 12 11 10 11 10 9
5 13 23 28 22 16 13 11 10 5 14 11 9 6 0 18 28 40 38 32 28 27 28 28 28 29 30 30 31 25 16 13 14 13 15 13 14 13 13 12 12 13 12 10 9 7 7 6 5
18 17 27 29 19 15 18 18 12 10 19 21 16 10 10 16 30 42 45 41 38 33 34 32 32 33 33 31 31 26 22 18 23 21 18 14 14 16 15 13 13 12 12 10 8 4 3 1 5
16 27 23 18 25 19 20 16 19 13 19 25 20 25 22 24 31 41 43 36 36 35 34 35 37 36 35 32 29 23 23 23 27 24 24 21 20 17 16 16 14 14 13 11 10 7 3 5 7
19 30 35 21 13 14 22 26 18 27 29 5 5 13 27 30 36 41 42 37 35 37 38 38 36 39 40 33 34 30 27 27 28 28 28 25 24 22 19 17 17 16 16 15 13 10 10 10 11
24 35 23 31 26 24 28 29 35 28 26 27 20 19 26 30 35 37 39 36 36 39 41 43 41 41 40 40 34 30 30 31 31 32 32 28 24 23 23 24 24 21 20 17 16 14 13 14 15
18 28 41 34 30 27 22 39 38 25 33 30 30 25 30 33 36 36 41 45 43 40 43 47 46 44 41 41 37 34 33 32 34 34 34 32 29 28 27 26 26 25 24 22 20 17 16 18 19
28 29 32 41 37 28 21 38 45 40 34 33 28 29 32 36 35 45 43 47 47 46 44 50 51 48 45 44 43 41 38 38 38 37 36 36 36 32 29 28 28 29 28 26 24 21 22 23 22
31 36 37 40 39 38 22 49 37 49 50 55 50 39 33 39 43 41 42 45 47 47 53 51 54 54 52 48 47 45 44 43 41 40 38 38 36 34 32 31 30 29 29 27 26 24 24 23 21
39 35 44 41 41 30 33 40 38 56 46 48 54 59 48 39 39 43 46 47 49 51 53 56 58 56 55 53 50 49 48 47 46 45 43 40 38 37 36 35 32 31 31 30 29 28 27 23 21
30 43 41 41 30 34 40 49 39 47 26 48 57 53 56 54 50 48 48 49 50 54 56 57 61 59 59 58 57 56 55 54 53 51 49 46 44 42 40 39 36 36 36 35 35 33 30 29 26
39 32 44 39 38 28 34 42 44 59 61 57 59 52 62 64 58 52 50 51 54 56 59 64 65 66 65 67 66 67 64 63 61 58 55 53 51 48 45 46 42 43 42 40 38 35 35 36 32
41 45 45 33 26 24 36 50 44 51 56 59 63 66 63 57 55 56 55 58 63 64 69 69 73 71 71 71 71 69 65 67 64 63 61 60 58 55 53 51 49 48 47 46 44 42 40 39 34
45 48 47 39 17 22 33 48 47 52 67 65 69 70 71 71 67 61 61 62 74 74 74 74 73 74 75 76 72 71 65 66 68 69 68 67 62 61 61 56 55 55 53 51 48 47 46 44 39
47 56 41 34 14 19 25 32 41 32 48 50 69 70 75 77 77 69 61 68 76 88 80 78 76 76 76 78 81 84 84 84 80 70 68 67 64 65 64 62 62 60 59 57 53 53 52 49 49
42 37 39 42 36 36 40 20 49 30 49 51 54 58 64 76 77 78 78 69 72 80 86 86 81 81 79 87 85 84 88 86 83 74 70 69 70 68 66 67 66 66 64 63 61 59 58 57 58
33 29 20 33 31 24 56 41 45 38 56 45 49 60 63 68 65 75 81 76 80 72 80 89 87 87 85 90 90 89 88 85 86 83 79 80 76 71 70 68 67 67 66 66 64 62 63 62 60
33 23 10 14 14 20 51 29 44 49 43 44 45 61 60 48 54 58 64 68 75 80 85 95 93 89 86 93 97 95 89 85 88 86 85 87 83 78 72 67 68 66 63 60 58 59 62 63 63
36 34 13 20 25 31 25 20 37 44 61 78 78 70 47 47 49 49 55 59 70 78 84 91 101 96 88 91 98 97 92 91 90 89 88 88 87 81 71 62 61 61 56 55 55 56 58 57 57
32 28 33 16 7 6 1 23 40 41 32 30 47 60 54 57 60 67 71 72 72 69 74 83 94 99 92 93 96 99 100 96 93 90 87 86 81 76 70 63 58 54 54 54 55 57 57 53 50
32 16 15 10 10 22 22 32 24 11 22 30 35 41 42 39 38 45 56 56 57 57 64 75 86 90 99 98 97 101 97 94 89 85 85 84 79 74 68 62 56 54 55 56 58 60 56 52 49
23 12 7 2 7 13 14 24 24 19 13 17 19 26 30 31 31 28 43 41 49 54 53 64 71 65 76 86 90 96 98 93 88 85 83 82 77 73 66 59 58 57 58 59 60 59 55 51 46
45 42 32 5 11 6 5 23 13 10 13 12 16 25 35 40 31 36 40 35 42 44 51 56 64 64 67 76 83 90 89 93 91 87 81 80 76 72 67 61 57 59 61 61 60 57 50 47 47
Wind_Direction_850mb
352 350 344 327 260 252 59 80 43 104 136 77 115 325 5 11 11 42 142 138 140 141 148 144 148 148 148 150 143 142 134 131 125 92 97 105 113 110 102 96 103 98 100 99 97 101 100 100 97
351 347 346 301 291 324 73 83 119 91 62 127 149 293 288 71 54 113 145 146 146 141 150 156 154 155 154 152 149 140 124 121 131 128 125 113 112 110 108 108 94 90 100 100 99 101 101 98 97
343 352 321 316 304 20 22 70 116 107 118 191 173 241 1 47 64 137 148 148 149 147 162 163 160 160 160 160 158 152 120 80 106 135 127 124 118 115 114 99 106 106 100 106 105 100 98 99 100
330 310 237 278 353 55 2 42 120 151 170 214 297 189 99 160 103 154 152 153 151 152 162 162 167 165 168 164 163 160 129 109 124 127 135 127 127 120 120 113 117 110 108 106 101 98 99 102 98
293 264 273 257 303 10 11 6 173 180 143 186 212 297 91 137 157 167 154 154 162 156 167 167 179 173 173 171 167 172 128 109 121 129 124 125 124 123 134 129 121 117 117 103 101 105 105 101 95
280 271 253 255 342 22 3 342 205 200 157 147 227 258 102 190 154 175 157 161 166 163 160 178 180 181 185 176 177 182 142 122 127 139 131 126 124 128 131 129 135 121 104 105 109 112 110 102 94
280 257 261 271 269 284 40 348 221 211 204 223 304 255 92 182 176 166 161 170 169 171 166 170 178 182 189 186 184 188 176 150 134 150 139 131 130 135 136 133 137 125 121 123 120 117 108 102 94
284 298 267 235 247 244 115 163 298 252 224 135 228 301 15 202 202 170 176 174 174 177 172 171 186 184 189 189 186 194 187 188 172 160 156 149 148 145 142 140 142 140 146 141 134 125 111 97 82
248 263 261 248 242 237 163 176 168 251 249 224 218 276 30 191 195 189 187 180 185 188 180 177 185 176 187 195 200 203 201 212 207 178 164 165 167 164 170 167 161 164 163 162 161 140 113 85 55
238 235 256 292 283 250 195 182 183 209 222 235 229 219 178 220 201 204 200 201 198 192 190 185 184 179 182 196 205 213 213 216 212 200 182 162 181 192 197 185 183 182 184 190 188 173 126 34 340
234 247 248 283 295 292 235 216 173 213 252 247 242 220 200 221 211 212 211 209 207 199 198 196 189 188 193 195 202 203 212 206 205 201 195 199 200 203 215 206 201 199 202 208 217 220 238 251 238
253 246 262 258 262 274 265 269 222 213 238 219 219 243 213 225 222 216 213 209 205 202 203 201 201 197 198 200 201 207 210 212 207 204 207 210 213 215 217 220 219 217 215 221 228 240 253 269 274
242 254 253 259 257 250 269 265 256 235 237 227 229 230 211 224 228 222 215 212 212 208 207 204 201 203 201 202 207 210 213 214 210 212 215 212 217 222 221 218 221 221 226 230 239 248 266 277 281
256 252 253 251 251 248 255 262 254 247 244 235 223 225 220 221 224 221 218 215 213 212 209 208 206 206 206 209 208 209 211 216 212 217 220 219 214 221 222 224 225 227 230 233 239 249 266 275 279
254 253 253 241 238 249 262 258 254 258 259 234 223 221 221 225 222 225 224 218 217 215 214 216 217 213 211 214 215 215 216 216 218 219 222 221 221 221 221 224 226 228 233 238 243 252 259 268 277
233 241 250 242 234 239 241 259 252 253 244 245 243 236 227 225 227 226 222 222 218 216 217 221 219 218 216 217 219 220 223 222 224 224 224 224 224 225 224 227 229 231 235 240 246 252 259 267 270
228 241 235 252 241 233 217 265 256 254 262 255 251 245 233 230 226 228 223 220 218 218 221 221 224 223 221 223 223 226 227 228 228 228 227 227 225 225 228 230 233 237 240 243 246 251 257 261 272
222 233 244 255 231 214 240 257 259 260 258 260 254 252 244 231 231 233 227 223 219 215 218 223 226 226 224 223 226 228 229 230 231 232 232 231 230 228 229 235 236 240 243 245 248 252 259 263 266
237 231 243 241 243 242 255 260 259 255 255 252 258 261 252 240 234 230 227 228 219 218 218 221 223 225 225 225 225 226 229 232 233 235 236 236 235 234 232 236 238 241 245 248 250 255 257 265 272
242 253 252 262 255 246 254 260 263 256 257 255 253 254 250 248 239 231 223 225 227 229 228 224 228 228 227 229 231 233 233 237 238 239 239 240 240 240 240 240 242 245 247 249 251 253 257 265 260
228 237 241 245 269 258 262 269 265 261 262 256 252 253 253 250 249 239 229 220 227 228 228 230 230 231 232 231 231 233 233 238 238 235 240 241 241 242 245 246 246 248 250 252 255 257 260 260 264
233 229 244 255 267 248 241 275 271 265 255 244 241 244 248 247 246 250 245 230 227 233 232 233 233 235 235 234 231 233 236 237 239 241 243 246 244 244 244 246 247 249 254 255 256 260 261 263 258
238 239 233 238 243 260 261 265 270 257 261 255 256 249 251 247 246 243 243 242 235 238 234 236 237 237 237 238 238 237 239 242 246 246 247 247 248 246 246 246 248 250 252 257 258 257 258 259 261
225 231 255 245 244 246 248 238 261 249 250 264 262 253 254 249 245 245 242 236 234 238 239 235 234 237 235 235 239 239 240 243 244 246 246 247 248 247 245 245 247 249 252 254 257 259 260 260 259
219 218 210 223 235 237 237 238 243 268 248 251 260 257 255 252 254 247 246 243 237 235 235 243 242 239 238 237 237 240 242 243 245 246 245 245 249 249 248 245 245 247 250 253 255 256 256 255 259
207 194 213 222 219 241 229 229 236 242 250 250 261 267 265 257 256 252 248 247 246 239 235 240 244 244 242 242 241 240 240 240 242 244 246 247 249 251 251 247 244 244 245 247 250 252 254 255 257
202 215 238 265 162 299 242 269 275 270 256 253 253 258 260 260 253 259 264 257 266 242 235 236 245 248 244 244 245 243 242 241 242 245 245 246 249 250 249 245 240 237 239 242 246 250 252 254 257
225 165 192 202 227 227 214 247 251 261 260 251 249 267 281 274 267 267 270 274 276 256 246 244 247 245 250 247 247 246 244 243 242 243 244 243 245 246 243 239 237 234 236 240 244 249 252 252 256
205 206 176 96 249 246 270 260 283 281 335 314 345 356 334 323 318 307 299 291 272 268 265 252 249 246 245 248 247 245 243 242 242 244 244 241 242 240 239 237 234 233 236 239 242 246 251 251 251
221 225 216 202 193 226 263 259 350 360 28 21 355 338 335 336 350 358 349 335 306 286 278 259 249 257 254 245 241 240 244 241 241 242 241 237 237 237 236 236 234 236 237 238 240 244 245 251 251